Regional Weather Roundup
Issued by NWS State College, PA

Home | Current Version | Previous Version | Text Only | Print | Product List | Glossary On
Versions: 1 2 3 4 5 6 7 8 9 10 11 12 13 14 15 16 17 18 19 20 21 22 23 24 25 26 27 28 29 30 31 32 33 34 35 36 37 38 39 40 41 42 43 44 45 46 47 48 49 50
000
ASUS41 KCTP 150910
RWRCTP

REGIONAL WEATHER ROUNDUP
NATIONAL WEATHER SERVICE STATE COLLEGE PA
500 AM EDT MON SEP 15 2014

Note: "fair" indicates few or no clouds below 12,000 feet with no
significant weather and/or obstructions to visibility.

* = STATION THAT DOES NOT REPORT PRECIPITATION /E.G. RAIN...SNOW...ETC/
    THUNDER OR FOG.

PAZ002>004-007>009-013>016-020>023-029>032-151000-
WESTERN PENNSYLVANIA

CITY           SKY/WX    TMP DP  RH WIND       PRES   REMARKS
ERIE           CLOUDY    53  45  74 S6        30.22R
MEADVILLE      PTCLDY    47  44  90 S3        30.23S
FRANKLIN*      PTCLDY    43  39  87 CALM      30.24S
NEW CASTLE     FAIR      39  39 100 CALM      30.25S FOG
BEAVER COUNTY  NOT AVBL
BUTLER*        CLEAR     43  37  81 CALM      30.25S
PITTSBURGH INT PTCLDY    46  43  89 CALM      30.23S
PITTSBURGH     CLEAR     48  45  89 CALM      30.23R
INDIANA*       CLOUDY    43  43 100 CALM      30.27S
LATROBE        CLEAR     43  43 100 CALM      30.25R
WASHINGTON CO* CLEAR     39  39 100 CALM      30.24R
$$

PAZ004>006-010>012-017>019-024>028-033>037-041-042-045-046-049>053-151000-
CENTRAL PENNSYLVANIA

CITY           SKY/WX    TMP DP  RH WIND       PRES   REMARKS
BRADFORD       CLOUDY    47  45  93 CALM      30.23R
DUBOIS         CLEAR     42  42 100 E3        30.23R FOG
CLEARFIELD     FOG       40  40 100 CALM      30.25R VSB 1/4
JOHNSTOWN      CLEAR     45  42  89 SW3       30.23S
ALTOONA        FOG       44  44 100 CALM      30.24R VSB 1/4
STATE COLLEGE  CLEAR     42  42  98 CALM      30.24S
WILLIAMSPORT   CLOUDY    48  46  93 NW3       30.24S
SELINSGROVE    CLOUDY    47  46  97 CALM      30.25S FOG
FT INDIANTOWN  NOT AVBL
CAPITAL CITY   MOCLDY    49  46  90 CALM      30.23S
HARRISBURG     MOCLDY    53  48  83 N3        30.22S
YORK           CLOUDY    45  44  97 CALM      30.23R
$$

PAZ038>040-043-044-047-048-054-055-060>062-067>071-151000-
EASTERN PENNSYLVANIA

CITY           SKY/WX    TMP DP  RH WIND       PRES   REMARKS
SCRANTON       MOCLDY    45  41  86 E6        30.24R
MOUNT POCONO   CLEAR     39  37  92 CALM      30.23R
ALLENTOWN      CLEAR     45  42  89 CALM      30.23S
QUAKERTOWN*    SUNNY     43  41  93 CALM      30.23S
READING        CLEAR     46  43  89 NW3       30.23R
LANCASTER      PTCLDY    44  43  96 E3        30.23R
COATESVILLE    SUNNY     46  46 100 NW5       30.23S
POTTSTOWN      CLEAR     47  45  93 CALM      30.24R
BLUE BELL      CLEAR     46  46 100 CALM      30.21S
DOYLESTOWN     CLEAR     49  47  93 CALM      30.22R
WILLOW GROVE   NOT AVBL
NORTH PHILA    CLEAR     51  46  83 CALM      30.23R
PHILADELPHIA   CLEAR     54  46  74 NW7       30.22R
$$


USA.gov is the U.S. government's official web portal to all federal, state and local government web resources and services.